DELTA 1 DEB, 7028

Orbit data source: Space-Track

DELTA 1 DEB, 7028 is space debris in SSO originally from a launch on Tue, 06 Nov 1973 UTC launched from the Air Force Western Test Range (AFWTR). Debris objects in space refer to the collection of defunct objects orbiting the Earth. Examples of debris include non-operational satellites, rocket bodies, and fragments generated from explosions, collisions, or faulty payload assembly.

Loading next visibility...
Identifier
7028, 1973-086U
Orbit
SSO
Country
Flag of USUS
Related business
Manufacturer
Unknown
Mission
Spacecraft
Bus & Motor
Unknown
Mass
Unknown
Launch date (UTC)
1973-11-06 (52 years ago)
Launch vehicle
Unknown
Launch site
Air Force Western Test Range (AFWTR)
Object type
Payload
Rocket body
Debris
Shape & HBR
Unknown shape, 0.6 m
Radar Cross Section
Large (>1 m²)

Expand to show TLE details & history
Last TLE update: 20 hours ago

TLE from 20 hours ago
0 DELTA 1 DEB
1 07028U 73086U   26034.05598502 -.00000019  00000-0  24521-3 0  9998
2 07028 102.6979  50.2834 0081638 353.7087  23.8819 12.24554479334930
Epoch: 2026-02-03T01:20Z
TLE epoch observation values (Epoch: 2026-02-03T01:20:37.105Z)
Latitude
17.51222°
Longitude
-107.1706°
Altitude
1,515.428 km
Speed
7.135 km/s
True Right ascension
03h 04m 54s
True Declination
17° 25' 24"
Sunlit
Object was in daylight at epoch
Visualization orbit readout
Latitude
Unknown
Longitude
Unknown
Altitude
Unknown
Speed
Unknown
Apparent Right ascension
Unknown
Apparent Declination
Unknown
Sunlit
N/A
Visualization observer readout
Local Sidereal Time
22:51:17
Azimuth
Unknown
Elevation
Unknown
Doppler factor
Unknown
Orbital elements
Apogee altitude
1,635.293 km
Perigee altitude
1,505.512 km
Semi-major axis
7,948.54 km
Eccentricity
0.00816
Inclination
102.6979°
RAAN
50.2834°
Arg. of periapsis
353.7087°
True anomaly
24.2642°
Mean anomaly
23.8819°
Eccentric anomaly
24.07269°
Mean motion
3.06275 °/min
Orbital period
117.54 mins
BSTAR
0.00024521
Loading maneuver chart data...
Computing Atmospheric mass density...
Loading historical data...
Loading historical data...
Loading historical data...
Loading historical data...
Loading historical data...
Loading historical data...
Loading historical data...

Documentation

Showing up to 5 results
|